Theta_e
313 315 315 316 318 318 317 316 314 313 313 314 313 314 314 313 314 314 315 316 313 313 316 313 314 315 314 321 319 316 329 333 332 336 335 337 338 339 343 343 345 344 345 346 345 346 344 342 341 339 339 337 337 336 333 333 332 334 334 334 336 334 334 336 337 336 336 335 334 333 334 334 335 335 334 334 334 334 334 333 333 333 333 332 333 332
314 317 318 318 319 319 319 319 315 313 313 313 312 313 313 313 314 314 315 317 314 313 316 314 314 313 316 326 321 317 330 333 330 334 333 336 338 338 341 341 342 341 342 344 345 345 342 340 339 338 337 336 336 335 334 335 335 336 335 334 336 336 336 336 334 333 335 336 335 334 334 334 334 334 334 334 333 333 333 333 332 332 333 332 332 332
315 317 319 317 315 314 316 318 315 314 315 314 314 314 315 315 315 315 319 320 315 314 317 314 312 314 319 325 319 316 323 325 327 332 332 334 335 335 337 336 338 338 339 341 342 342 340 338 338 337 336 336 336 336 336 337 335 334 334 333 334 335 336 333 326 324 328 333 335 335 334 335 334 333 333 333 333 333 333 333 332 332 332 332 332 332
317 318 316 313 311 313 314 315 316 315 314 317 316 314 316 316 313 316 322 323 317 316 319 318 320 326 323 320 319 318 321 324 327 330 330 331 332 333 334 335 336 338 338 339 339 339 337 337 336 336 337 337 338 338 336 335 333 332 332 333 334 334 335 333 326 323 326 331 334 333 334 335 334 333 333 333 333 333 333 333 333 332 332 332 332 332
317 316 313 312 312 314 314 314 316 314 315 322 320 314 315 315 314 315 319 323 322 321 321 324 330 330 322 320 323 321 324 328 328 329 330 329 329 331 333 333 334 335 336 335 335 335 335 336 337 337 340 339 338 338 336 333 332 333 332 333 334 333 333 332 329 327 330 333 334 332 334 335 334 333 334 333 333 332 333 333 332 332 332 332 332 332
315 313 311 313 313 312 313 314 316 316 316 321 322 317 315 316 318 317 319 325 327 321 317 320 322 319 321 327 328 324 326 329 328 328 329 329 329 329 331 333 333 333 334 332 331 331 333 336 338 339 340 339 339 339 337 334 334 334 334 334 335 333 331 331 331 332 333 333 332 331 332 333 333 333 334 333 332 332 332 332 332 332 332 332 332 331
316 313 313 315 313 312 312 312 314 316 316 316 321 321 316 318 321 319 320 323 322 319 316 319 320 318 325 332 330 328 329 329 328 328 328 330 329 328 331 333 333 334 334 333 332 333 335 336 338 339 338 338 340 339 336 335 334 335 336 335 336 334 330 328 330 333 335 334 330 328 328 330 331 333 333 332 332 332 332 332 332 332 332 332 331 331
316 315 315 315 314 312 312 312 313 314 315 317 324 325 319 319 321 321 321 319 319 319 321 326 325 323 329 333 331 330 331 330 329 328 328 330 330 329 330 331 332 333 333 334 334 335 337 338 337 337 338 339 340 338 336 333 332 334 335 335 336 334 329 328 331 333 334 334 331 326 325 329 331 332 333 332 331 332 332 332 332 332 332 332 331 331
316 317 317 315 313 312 313 313 313 313 314 320 325 322 319 318 318 322 322 322 323 318 318 326 326 322 325 329 332 332 332 332 329 328 329 330 330 330 330 331 331 333 333 334 335 336 337 337 337 338 339 340 339 338 336 332 328 329 332 332 334 333 330 331 335 334 333 332 330 327 326 328 330 332 333 332 331 331 332 332 331 331 331 332 331 330
315 316 316 314 314 314 314 313 313 313 314 317 319 316 318 320 320 324 323 323 325 319 317 325 326 327 329 329 333 334 333 332 329 328 328 329 330 331 331 331 331 331 332 333 334 335 336 336 337 338 338 339 339 338 336 331 327 326 328 329 331 332 331 333 335 334 332 330 329 327 326 327 330 333 333 332 332 332 331 331 331 331 331 331 330 329
314 313 313 313 314 314 314 312 311 313 313 314 316 315 318 323 326 332 332 325 321 320 324 327 323 331 337 332 332 333 332 330 329 329 328 328 329 330 331 331 330 331 330 331 332 333 333 334 335 336 337 337 337 337 334 332 330 328 327 327 328 329 330 332 335 333 329 327 327 327 327 328 330 333 333 333 332 332 331 331 331 330 331 330 328 327
314 313 313 314 314 313 313 313 310 311 313 314 319 317 316 321 323 328 331 324 319 321 326 324 322 328 335 332 331 331 329 326 327 329 328 328 328 328 330 330 329 330 330 330 331 331 332 332 333 334 335 334 335 334 333 332 332 331 329 328 328 328 329 331 332 331 328 326 326 327 328 329 331 332 333 332 332 332 331 331 330 330 330 328 327 327
317 315 314 313 313 313 314 314 312 311 313 314 320 321 318 319 318 320 325 323 321 323 318 318 326 332 331 329 329 328 327 325 326 327 327 327 328 328 328 328 328 329 330 330 330 331 331 331 332 332 332 333 333 332 331 330 331 331 330 329 329 330 331 331 331 330 328 327 327 328 328 330 332 332 332 333 332 332 331 331 330 329 329 328 327 329
317 317 315 313 313 314 314 315 315 314 314 315 319 321 320 320 318 317 319 319 319 320 315 315 326 333 331 329 327 327 327 326 325 326 327 327 327 327 327 327 328 328 328 329 329 329 329 329 330 331 332 333 333 331 330 330 331 331 330 330 330 330 331 331 329 328 328 328 328 328 329 330 332 332 333 333 333 332 331 330 329 329 328 327 327 329
317 319 318 315 313 314 315 315 317 317 316 314 316 318 319 324 325 320 321 322 318 318 319 321 324 328 331 329 325 325 327 327 327 327 326 326 326 326 326 325 325 325 326 326 327 327 327 327 328 330 331 331 332 331 330 330 330 330 330 331 331 332 331 330 329 329 330 330 329 329 330 331 332 332 333 333 333 332 331 330 328 328 328 327 328 329
315 319 322 318 312 314 315 314 315 317 316 313 313 315 316 322 327 323 322 324 323 324 326 326 325 325 327 327 322 324 328 328 327 327 326 326 325 324 323 323 322 323 324 325 325 326 326 327 327 328 329 328 328 329 328 329 329 329 331 331 332 332 331 331 331 331 331 331 331 331 331 332 333 333 333 333 332 332 331 330 328 328 327 328 329 330
314 319 322 316 313 315 315 315 316 315 317 317 313 316 316 316 321 321 317 318 323 325 321 322 329 328 326 327 324 324 329 328 327 327 325 325 323 322 321 321 320 321 322 323 324 324 325 326 326 327 328 328 327 326 327 328 328 328 329 330 331 331 331 330 331 332 331 329 329 329 330 331 332 333 333 332 332 331 331 330 328 327 327 329 330 329
317 319 321 317 314 315 312 313 316 313 317 319 315 316 315 312 317 322 321 322 323 320 316 321 330 329 326 328 326 325 328 328 326 326 325 324 323 322 320 320 320 320 322 323 324 325 325 325 326 326 327 328 328 327 327 327 327 327 328 329 329 330 330 330 331 331 330 329 329 328 327 327 328 330 332 332 331 331 330 329 327 327 328 330 329 328
317 318 322 319 314 315 314 315 316 313 313 316 315 315 315 316 320 319 318 322 319 317 320 324 325 325 327 328 326 327 329 328 326 325 324 323 322 321 319 318 320 321 322 322 323 324 325 325 326 326 327 327 327 327 327 327 328 328 327 327 327 328 330 330 330 331 330 330 330 328 326 326 326 328 331 331 330 330 329 327 327 328 329 329 328 327
319 318 321 321 315 314 317 318 320 318 313 313 314 312 316 323 325 318 317 320 318 319 324 326 325 326 328 327 327 329 327 326 326 324 323 321 319 318 317 316 317 318 319 320 321 322 324 324 324 325 326 326 326 326 326 327 327 327 327 326 326 327 328 329 330 330 329 330 330 329 328 327 327 329 331 331 330 330 328 326 328 329 329 329 326 326
315 315 320 326 321 315 318 319 320 321 315 313 315 313 314 318 318 316 317 317 318 323 325 326 328 328 327 327 328 328 326 324 324 322 321 320 318 316 315 315 315 315 316 318 319 321 323 323 324 324 324 325 326 326 326 326 326 326 326 325 325 326 327 328 329 328 328 329 330 330 330 329 329 330 331 331 330 329 327 327 329 329 329 328 327 327
314 317 324 328 322 317 321 320 316 318 317 316 320 320 317 316 317 319 317 316 322 326 324 325 329 327 325 326 325 325 324 323 322 321 319 318 316 314 313 313 313 314 315 316 317 319 321 322 323 323 323 323 324 325 325 325 325 325 325 325 326 326 327 328 329 329 328 329 330 330 330 330 330 331 331 331 330 328 326 327 329 329 329 329 328 328
322 324 321 319 317 317 320 319 316 318 320 322 325 324 322 320 322 326 324 322 323 323 322 325 328 325 323 323 322 321 320 319 319 319 318 316 314 313 312 312 312 314 315 315 315 317 319 320 320 321 322 322 322 322 322 323 322 323 324 325 327 327 327 329 330 330 330 330 331 330 329 330 331 331 330 329 329 328 326 327 328 329 329 329 328 328
322 323 317 315 317 319 319 319 320 321 324 328 327 323 324 324 323 327 331 331 327 323 327 332 328 325 324 321 319 318 316 315 315 315 315 314 312 312 311 310 311 312 313 314 314 315 317 318 318 319 319 319 319 319 319 320 320 321 322 324 326 327 328 328 329 329 329 330 330 330 329 329 330 330 329 328 329 328 327 326 327 328 328 328 328 328
318 320 321 319 317 318 319 318 321 323 326 328 325 321 322 324 322 321 325 330 327 321 325 332 327 324 323 319 316 315 314 313 312 311 312 311 310 311 310 310 309 310 311 312 313 314 315 315 316 316 315 315 316 316 317 317 318 319 320 321 323 324 325 327 328 328 328 328 329 330 330 330 330 329 329 329 329 329 328 327 327 328 328 327 328 328
322 321 325 326 321 321 323 324 325 325 325 325 322 320 322 323 323 320 322 331 329 321 322 329 326 323 321 317 315 314 312 312 311 310 310 309 309 309 309 309 309 308 309 310 312 313 314 314 314 314 314 315 315 316 316 317 317 318 319 320 321 322 323 324 326 327 328 328 329 329 330 330 330 329 329 329 329 329 329 328 328 328 328 327 328 327
327 320 321 326 326 325 327 326 324 324 326 325 321 319 320 319 320 324 327 330 328 323 324 326 323 322 320 316 314 313 311 311 310 309 309 308 308 308 307 308 308 307 307 309 310 312 313 313 313 313 314 315 315 316 316 316 317 317 318 319 320 321 322 323 324 325 326 327 328 329 329 330 330 329 329 329 329 329 329 328 328 327 327 328 327 327
330 322 318 320 320 320 320 319 318 319 320 320 318 317 317 317 320 327 328 324 322 324 326 324 321 322 319 315 314 311 309 309 308 307 307 307 306 306 306 307 307 307 307 308 309 310 312 313 314 314 315 315 315 316 316 315 316 317 318 319 320 320 321 322 323 324 325 326 326 327 328 329 329 329 329 329 329 329 328 328 328 325 326 327 327 327
329 324 318 317 317 316 316 316 316 316 315 315 316 316 316 317 321 324 321 318 321 327 328 323 320 319 316 313 312 310 308 307 306 306 306 305 305 305 305 306 306 305 305 306 306 307 309 311 313 314 314 315 314 314 314 315 315 317 318 318 319 320 320 321 322 323 324 325 326 326 326 327 328 328 329 329 329 329 328 328 328 325 324 326 327 327
324 322 317 317 317 315 315 315 315 315 315 315 314 314 315 316 317 318 318 317 320 324 323 319 316 313 311 310 309 308 307 306 305 305 304 304 304 304 304 304 304 304 304 304 304 305 307 309 311 313 313 313 313 313 313 314 315 316 317 318 318 319 320 321 321 321 322 324 324 325 326 326 326 327 328 329 329 329 328 327 327 325 323 325 326 326
321 321 319 319 320 317 314 314 314 314 315 314 314 313 314 315 315 316 316 316 317 318 316 314 313 311 308 308 307 306 306 305 305 304 304 303 303 303 303 303 303 303 303 303 303 304 306 307 309 311 311 311 312 312 312 313 314 314 316 317 317 318 318 320 320 320 321 323 324 324 325 325 326 326 327 328 328 329 328 327 326 324 323 324 324 324
324 321 319 321 322 318 315 314 315 315 316 315 314 313 313 314 314 314 314 314 315 315 314 315 314 310 307 306 305 305 304 304 304 303 303 303 302 302 302 302 302 302 303 303 303 304 305 307 308 309 309 310 311 312 312 313 313 313 314 315 315 316 318 318 318 319 321 323 323 324 324 325 325 325 326 327 328 328 328 328 326 323 323 325 324 324
325 321 319 321 323 319 316 316 317 319 322 319 314 312 313 313 313 312 312 312 312 313 315 315 313 309 306 305 304 304 303 303 303 302 302 302 302 302 301 301 302 302 302 303 303 304 305 306 307 307 308 309 311 311 312 313 313 313 313 313 314 315 317 318 318 319 321 323 323 323 323 324 324 324 325 326 327 328 328 328 327 324 323 325 324 324
319 320 322 322 322 319 316 317 318 320 321 317 312 311 312 312 311 312 311 309 309 311 311 310 308 306 305 304 304 303 303 302 302 301 301 301 301 301 301 301 301 302 302 302 303 304 305 306 306 307 308 308 310 311 311 312 313 313 313 314 314 315 316 317 318 319 321 323 323 323 323 324 324 324 325 325 326 327 328 327 327 325 324 324 323 324
318 320 321 321 319 318 317 318 321 321 317 312 310 310 310 309 309 309 309 308 308 308 307 307 306 305 304 303 302 302 301 301 301 300 300 300 300 300 301 301 301 302 302 302 303 304 305 305 306 306 307 308 309 310 311 311 312 313 314 314 314 315 316 317 317 318 320 321 322 322 322 323 324 324 325 325 325 326 328 327 326 325 323 323 324 324
319 320 319 318 317 317 318 318 319 317 312 310 311 310 310 310 310 310 310 309 308 307 306 306 305 303 303 302 301 301 300 300 300 300 300 300 300 300 300 300 301 301 302 302 302 303 303 304 305 305 306 307 308 309 310 310 311 313 313 314 314 315 316 316 316 317 318 320 320 320 321 322 323 324 324 324 325 326 327 327 325 324 322 323 324 324
317 319 319 318 316 316 316 315 314 313 312 311 311 310 310 310 310 311 311 309 308 307 306 304 303 303 302 301 301 301 301 301 301 300 299 299 299 299 299 300 300 301 301 301 301 302 302 303 303 304 305 307 307 308 308 309 310 312 313 313 314 315 315 315 316 316 316 317 318 318 319 320 321 322 324 323 324 325 326 325 325 324 322 322 324 323
318 319 320 319 316 314 314 313 312 314 314 312 310 309 309 309 309 310 310 309 308 307 305 304 303 303 302 301 301 301 303 305 304 300 299 299 298 298 298 299 299 299 299 299 299 300 300 300 301 302 303 305 306 306 307 308 309 310 311 312 313 313 314 314 315 315 315 315 315 316 318 318 318 320 322 322 321 323 325 325 324 322 321 322 323 322
316 317 319 318 316 314 315 315 314 314 313 311 309 308 308 309 309 309 311 311 308 307 306 305 304 303 302 302 301 302 305 308 305 300 299 299 298 298 298 298 298 297 297 297 298 298 298 299 300 300 301 302 303 304 305 306 307 309 309 309 310 312 313 313 313 314 314 315 315 315 316 316 316 316 317 318 318 319 322 323 322 320 320 320 321 320
317 317 319 318 316 315 315 314 313 312 310 309 308 307 307 308 308 311 315 313 308 307 307 305 304 304 303 302 303 303 304 306 303 299 299 299 298 298 298 298 298 298 297 297 297 298 298 298 299 299 300 301 301 302 303 304 305 306 305 306 308 310 310 310 309 311 313 314 315 315 315 315 315 314 314 315 315 316 318 321 321 320 319 319 319 319
316 315 316 316 314 313 313 312 310 309 309 307 307 307 307 308 310 313 315 311 306 306 307 306 305 305 304 304 304 302 302 302 301 299 299 299 299 299 299 299 299 298 298 298 298 298 298 298 299 299 300 300 300 301 301 302 303 303 303 303 305 305 306 306 306 308 311 313 314 314 315 314 314 314 314 313 313 314 316 318 318 318 318 318 319 318
314 314 313 313 313 311 310 310 310 310 308 306 306 306 307 310 313 312 309 307 305 305 305 305 305 305 304 304 303 301 300 300 299 299 299 299 299 299 299 299 299 299 299 299 299 299 299 299 299 299 299 300 300 300 300 300 301 301 301 301 302 302 302 303 304 305 307 310 312 313 313 314 314 314 314 313 312 312 313 314 314 314 314 315 316 315
311 312 312 311 311 311 311 310 312 312 307 304 306 308 308 310 310 307 305 305 305 304 303 303 303 303 303 302 300 300 299 299 299 299 298 299 299 299 299 299 299 299 299 300 300 300 300 300 300 300 300 300 300 300 300 300 300 300 300 300 300 300 300 301 301 302 303 305 308 310 311 312 313 314 314 314 313 312 312 312 312 313 312 312 313 312
308 310 311 309 308 311 313 311 310 308 305 304 307 308 307 307 307 305 304 303 303 303 302 302 301 301 302 301 300 300 299 299 299 299 298 299 299 299 299 299 299 300 300 300 300 300 300 300 300 300 300 300 300 300 300 300 301 300 300 300 299 299 299 300 300 300 300 301 303 306 308 309 311 312 313 313 313 312 312 312 312 312 313 313 313 313
307 308 308 307 305 307 309 307 305 305 304 305 306 306 306 306 306 306 305 303 302 302 302 302 301 301 301 301 300 300 299 299 299 299 298 298 298 298 299 299 299 299 300 300 300 300 300 300 300 300 300 300 300 300 300 300 300 300 300 300 300 299 299 299 300 300 300 300 300 301 303 305 308 309 310 311 311 311 311 311 311 311 311 312 312 312
305 305 306 305 304 305 305 304 304 304 305 305 305 305 305 305 305 305 304 303 302 302 302 302 301 301 301 301 300 299 299 299 298 298 298 297 297 298 298 298 298 298 298 299 299 299 299 299 299 299 299 299 299 299 299 299 299 300 300 301 301 301 300 300 300 300 301 301 300 300 300 302 304 306 307 307 308 309 309 310 310 310 310 310 309 309
305 305 305 305 305 305 305 304 304 304 304 304 304 304 304 304 304 304 303 303 302 302 302 302 301 301 300 300 299 299 298 298 298 298 298 297 297 298 298 298 298 298 299 299 299 299 299 299 299 299 298 298 298 298 299 299 299 299 299 300 300 301 301 301 301 301 301 301 301 301 300 299 301 303 304 305 306 306 307 307 308 308 307 306 306 305
305 305 305 304 304 305 305 304 303 303 304 304 304 303 303 303 303 302 302 302 302 302 301 301 300 299 299 299 298 298 298 298 298 298 298 298 298 298 299 299 299 299 299 299 299 299 299 299 299 299 299 299 299 298 298 299 299 299 299 300 300 301 301 301 301 301 301 301 301 301 301 300 299 300 300 302 303 304 305 305 305 305 305 304 304 303
305 305 304 303 304 304 303 303 303 303 303 303 303 303 302 302 302 302 301 301 301 300 300 299 299 299 299 299 299 299 299 299 299 299 299 299 299 299 299 299 299 299 299 299 299 299 299 299 299 299 299 299 299 299 298 299 299 299 299 300 300 300 300 301 301 301 301 301 301 301 300 300 300 299 299 299 299 300 301 302 303 304 304 303 303 303
304 304 303 303 304 304 303 303 303 303 303 302 302 302 302 302 302 301 300 300 299 299 299 299 299 300 300 300 300 300 300 300 299 300 300 300 300 300 300 300 299 299 299 299 299 299 299 299 299 299 299 299 299 299 299 299 299 299 299 299 300 300 300 300 300 300 300 300 301 301 300 300 300 300 299 298 298 298 298 298 298 299 300 301 302 302
304 303 302 304 304 303 303 303 302 303 303 302 302 302 301 301 301 300 300 299 299 300 300 300 300 300 300 300 300 300 300 300 300 300 300 300 300 300 300 300 300 299 299 299 299 299 299 299 299 299 299 299 299 299 299 299 299 299 299 299 299 299 299 299 299 299 299 299 300 300 300 300 300 299 299 299 299 299 299 298 298 297 297 297 298 298
Wind_Speed
7 4 2 5 6 6 6 7 7 5 5 4 2 1 1 3 5 5 5 7 3 4 8 7 8 9 6 6 4 3 10 15 15 11 11 16 17 18 20 20 23 22 20 20 20 21 23 23 22 19 19 18 16 17 18 21 20 19 20 23 30 29 24 28 27 26 29 29 29 30 28 26 25 24 23 23 22 21 20 19 19 20 20 19 18 17
5 5 5 7 8 7 7 6 6 4 4 2 1 1 3 2 5 7 4 7 1 5 7 2 5 7 4 5 7 6 2 7 12 13 11 16 20 20 19 17 15 14 14 17 19 21 23 23 21 19 17 15 16 18 19 21 20 20 23 26 30 32 30 25 18 20 28 30 30 29 28 25 23 23 23 23 22 21 20 19 19 19 19 18 17 16
3 4 7 8 7 5 3 4 6 4 4 2 2 2 2 3 4 7 5 6 1 4 5 1 5 4 5 4 7 11 8 7 6 6 3 4 9 8 8 9 9 10 11 14 17 21 22 21 19 16 14 15 17 18 17 18 17 19 23 24 27 31 29 22 18 19 27 31 29 27 25 24 22 22 23 23 21 20 19 18 18 17 17 17 17 16
2 5 8 7 6 5 3 3 8 4 2 2 2 3 2 4 1 3 5 6 4 1 2 4 4 3 6 5 6 14 17 17 14 7 6 7 5 2 4 7 10 12 13 14 17 21 22 21 19 15 14 16 18 16 16 16 14 17 20 20 21 24 24 22 23 23 26 30 28 26 25 24 22 22 23 23 22 20 19 19 18 17 16 17 18 17
5 6 5 7 7 7 5 3 7 5 1 3 4 5 3 5 4 5 5 6 5 5 3 6 4 4 5 6 6 12 16 19 22 18 14 15 11 3 4 4 7 13 15 17 20 23 23 21 19 15 14 17 17 15 15 14 11 14 16 14 15 18 19 21 27 28 27 29 28 27 26 24 23 24 24 25 24 22 21 20 19 17 16 17 17 16
7 6 5 7 5 6 5 5 5 7 3 3 4 8 7 7 5 4 3 5 5 6 4 6 5 3 4 8 6 7 9 12 18 19 19 23 20 9 1 4 7 11 14 19 22 23 22 20 18 15 14 16 15 14 14 12 10 13 14 12 14 18 19 22 30 32 28 28 27 25 24 25 26 26 26 26 25 23 22 20 18 17 17 17 17 16
4 4 7 7 5 6 6 5 4 7 6 2 5 8 9 6 4 3 0 4 3 1 2 4 6 3 4 8 8 8 6 8 14 15 17 23 24 15 5 6 8 9 13 18 22 21 20 20 17 13 12 13 13 13 13 12 12 14 16 15 17 21 21 24 29 30 27 26 26 24 24 26 26 26 26 24 23 22 21 18 17 18 17 16 16 17
3 5 6 6 6 6 5 5 5 8 7 3 6 6 8 7 7 5 4 5 2 2 3 4 5 3 4 5 8 8 4 7 13 14 16 21 22 18 11 5 8 10 10 15 20 20 20 18 13 10 10 11 12 12 13 11 9 12 15 16 19 23 22 24 26 25 26 27 26 27 27 26 26 26 24 22 21 21 20 17 17 17 17 17 16 17
3 6 7 7 6 4 6 6 8 9 6 7 6 6 7 6 7 5 5 4 0 2 3 6 4 5 3 6 7 7 6 9 12 12 14 18 20 19 16 10 6 8 8 10 14 16 15 12 10 10 12 13 13 13 14 11 7 8 12 13 17 23 23 24 25 25 27 28 28 29 27 26 26 25 23 21 20 20 19 18 17 18 18 18 18 17
2 6 8 8 5 5 8 6 9 11 5 7 5 6 4 4 5 4 5 4 3 5 2 7 2 4 1 5 6 6 6 8 8 7 10 15 18 19 17 14 10 6 5 7 9 13 13 13 15 15 15 16 15 14 14 11 10 11 13 14 18 24 25 24 26 27 28 26 26 29 28 26 25 25 24 22 20 18 19 19 18 18 19 20 19 18
4 3 5 6 7 8 8 6 10 14 9 3 5 5 5 5 5 3 3 4 4 2 5 7 1 5 1 3 4 3 3 5 6 5 8 13 16 18 18 16 13 11 8 7 8 10 11 12 15 16 16 16 16 14 13 13 13 14 16 17 20 25 28 27 26 27 27 25 24 25 27 25 25 25 24 22 20 18 18 19 19 18 19 20 19 18
5 1 2 5 11 9 4 4 7 10 5 5 4 5 4 2 4 4 4 4 4 2 6 4 4 7 2 2 3 3 4 6 6 6 8 11 13 16 18 18 16 14 11 9 7 5 4 5 7 10 12 12 13 12 12 15 17 18 20 20 22 26 29 29 29 27 25 23 23 23 24 25 25 26 25 22 19 17 17 18 19 19 20 20 19 18
3 3 3 3 9 9 5 2 2 2 3 5 4 5 5 0 2 1 2 1 2 2 4 4 3 6 1 2 3 4 5 6 6 6 8 10 12 15 17 19 19 17 14 12 10 8 6 4 1 3 6 8 9 10 13 16 17 19 22 23 24 28 31 31 30 29 27 24 23 23 24 25 25 26 26 22 18 16 17 18 20 21 21 21 19 19
3 5 4 2 4 7 8 4 3 2 3 5 5 5 5 3 3 1 2 1 2 1 3 5 1 3 1 1 1 2 4 5 7 9 10 11 12 14 16 18 20 19 17 15 13 11 10 8 6 4 7 9 11 12 15 16 14 16 20 23 25 27 29 30 28 27 27 27 27 26 26 25 24 25 26 22 17 16 17 18 20 22 21 21 20 19
2 3 3 3 2 5 8 7 7 7 4 4 4 6 5 5 4 3 3 3 3 2 1 3 2 2 2 1 2 3 2 7 9 11 12 13 13 14 17 18 20 19 18 17 15 13 11 9 8 5 4 7 11 14 16 15 14 15 17 21 24 25 25 26 26 25 24 25 27 27 27 26 25 24 24 21 17 16 18 18 20 22 22 21 21 20
4 4 7 5 2 5 7 5 6 8 4 1 2 6 3 5 6 3 3 5 5 2 3 3 2 1 1 3 2 5 1 6 10 11 14 15 15 16 18 19 19 19 19 19 18 17 15 12 10 8 5 4 3 9 14 16 17 18 18 19 21 22 21 21 22 21 21 21 23 24 25 25 24 23 22 20 17 17 18 18 20 22 22 22 22 21
4 4 7 3 3 4 7 7 5 5 4 0 2 4 3 4 8 5 2 1 3 5 2 2 3 2 1 2 2 3 1 5 8 11 13 14 15 17 17 17 18 19 20 20 19 19 17 15 12 9 7 6 5 4 6 10 14 16 17 17 18 17 16 18 20 18 18 18 19 21 22 21 23 23 21 20 18 18 18 19 20 22 22 23 23 22
4 3 6 1 3 5 5 6 3 2 5 4 3 5 2 3 5 4 2 2 4 4 1 2 2 3 2 1 2 2 5 6 6 8 9 11 13 14 15 16 18 18 18 18 17 17 15 14 13 11 8 7 7 7 7 7 10 12 14 15 15 16 16 17 21 22 18 13 14 16 17 17 20 23 23 21 20 19 19 20 22 23 24 25 23 20
3 0 6 3 3 3 2 6 3 4 3 5 4 4 4 3 1 1 2 2 2 2 0 2 2 1 2 1 2 4 7 7 7 6 7 9 11 12 13 15 17 18 18 17 16 16 15 14 12 11 9 8 8 9 10 10 11 12 14 15 13 17 20 18 20 22 17 11 12 14 16 15 18 22 24 22 21 21 21 22 23 24 26 25 22 19
3 3 4 5 2 1 3 4 2 3 4 5 4 3 2 3 4 2 2 3 4 3 2 2 1 2 3 3 2 4 6 7 7 5 6 8 11 12 13 15 16 16 17 18 17 15 14 13 12 10 9 8 8 10 11 10 11 12 13 14 10 11 17 17 16 16 13 12 14 16 17 16 16 20 23 21 21 22 22 23 24 26 26 24 22 20
2 3 2 5 5 1 1 1 5 6 2 2 3 1 0 2 2 2 1 2 4 5 3 3 1 4 3 2 2 2 5 7 7 6 6 9 10 12 14 15 15 16 16 17 16 15 12 11 11 10 8 6 5 5 6 7 8 9 10 9 5 6 11 13 10 9 11 14 16 18 18 16 15 18 20 20 20 22 22 23 25 27 25 23 23 22
2 2 3 3 5 2 2 5 4 7 6 4 3 2 2 3 4 3 1 1 3 4 4 5 3 3 1 1 1 3 5 6 7 7 8 10 10 12 14 15 15 15 15 16 16 15 12 10 11 10 9 8 6 5 5 6 7 7 8 7 6 7 7 8 7 7 11 15 17 17 16 14 14 17 19 19 21 23 23 24 26 27 25 24 23 21
3 4 3 1 2 1 3 5 2 7 10 8 4 2 1 3 5 5 3 2 2 4 2 3 3 1 0 3 4 5 7 10 11 8 9 10 11 12 14 15 15 14 14 14 14 14 12 11 11 10 10 11 10 10 9 9 9 9 9 7 8 9 8 8 8 10 13 15 17 16 14 13 14 17 19 20 23 25 25 26 28 26 24 23 22 20
2 3 3 1 3 3 5 4 5 6 9 8 4 3 2 0 3 5 5 3 4 3 2 3 2 1 2 5 7 8 11 16 15 11 10 11 11 12 14 15 15 15 14 13 13 13 12 12 11 11 13 14 14 14 14 14 13 12 11 9 8 9 10 11 12 13 15 18 18 17 15 16 16 17 20 22 26 27 27 27 27 25 23 23 21 20
1 1 3 3 1 3 4 3 5 6 5 4 3 3 3 2 4 4 2 4 4 3 3 5 2 1 3 6 8 8 11 14 13 12 13 12 11 11 12 13 14 15 15 14 14 14 14 13 14 15 16 17 17 18 18 18 17 16 16 14 11 10 9 10 13 16 17 19 20 18 17 18 17 18 21 23 26 28 28 27 27 26 24 23 23 22
3 2 3 5 4 3 3 2 1 1 2 3 3 5 6 4 4 4 3 4 3 2 3 4 4 4 5 7 7 7 9 10 9 11 12 12 11 10 10 12 13 15 16 16 16 15 15 15 16 17 18 19 20 20 20 20 19 20 19 18 16 14 11 9 11 15 18 19 20 20 19 18 18 19 21 23 26 28 29 28 27 27 25 25 25 23
5 4 3 5 5 5 4 2 1 2 3 3 4 7 7 4 3 4 4 4 5 4 2 0 6 9 7 6 6 6 7 7 6 9 11 10 10 10 10 10 12 14 15 15 16 15 15 16 16 18 18 19 20 20 21 21 21 22 21 20 19 18 15 11 10 11 14 16 17 19 20 18 18 20 21 23 26 29 30 29 28 26 25 26 26 24
5 4 4 7 7 3 3 5 6 7 7 5 4 6 7 6 6 6 4 2 6 7 1 2 9 11 8 6 7 5 6 6 6 8 9 9 10 10 10 9 10 13 14 14 15 16 16 16 17 17 18 19 19 20 21 22 22 23 23 23 21 21 18 13 10 11 11 11 11 14 17 18 20 21 21 22 26 30 31 30 29 27 27 29 29 25
6 3 3 6 9 8 7 7 9 12 10 9 9 8 9 10 10 8 4 1 2 5 6 9 10 8 6 7 6 5 6 7 7 7 8 9 10 9 10 11 11 13 14 15 16 16 16 17 17 17 17 18 20 22 22 23 23 23 24 25 25 24 22 17 12 12 12 11 10 10 12 15 18 21 22 23 28 32 32 31 30 28 29 32 31 27
5 3 2 5 9 9 8 6 7 12 11 10 12 10 10 11 12 11 7 4 6 5 8 13 12 7 5 5 6 7 8 8 9 10 10 10 10 9 10 12 12 13 14 14 16 16 16 16 16 16 16 19 22 24 24 24 25 24 24 25 27 28 26 22 18 17 16 13 11 10 11 12 14 18 20 24 30 34 33 32 31 29 28 30 31 29
4 3 1 3 7 6 7 6 7 11 12 12 11 10 9 9 9 9 7 6 8 8 9 13 11 6 4 5 8 8 8 8 10 11 11 9 9 9 10 11 11 13 14 14 15 16 15 15 15 16 17 19 22 25 25 25 24 24 24 24 27 29 29 25 22 20 20 18 13 10 11 12 12 13 16 21 30 35 33 32 31 29 28 30 32 31
4 4 0 3 5 2 2 4 7 9 12 12 10 10 9 7 6 5 4 4 4 7 11 11 6 3 4 6 8 8 8 9 10 10 9 8 9 9 10 11 12 13 14 14 15 15 16 17 17 17 18 20 21 24 24 24 24 25 25 26 27 29 29 28 24 21 20 19 17 14 12 12 12 12 14 18 27 34 33 32 30 28 28 31 33 32
4 6 3 2 4 1 3 1 3 5 7 6 5 6 5 3 5 5 5 6 4 4 8 6 3 5 6 6 6 6 7 8 9 9 9 8 8 8 9 10 11 12 13 13 14 15 16 17 18 18 18 19 20 21 22 23 23 25 26 26 26 27 28 28 26 22 20 19 18 17 15 13 13 13 12 15 25 32 33 32 31 29 30 33 34 33
4 7 4 2 4 4 4 2 4 3 2 1 3 3 2 3 7 8 6 6 6 4 5 6 6 7 6 6 6 6 7 8 9 10 9 8 8 8 9 10 10 11 11 12 13 15 16 16 17 16 17 18 18 19 19 20 21 22 23 24 24 24 25 25 23 20 17 17 18 18 17 15 12 13 12 15 23 30 31 32 32 32 33 33 34 33
5 5 4 2 3 4 1 3 3 2 2 1 2 4 6 8 11 13 10 8 8 8 9 10 8 7 8 9 10 11 11 11 11 11 10 10 10 9 9 10 11 11 12 13 14 14 15 16 17 16 17 18 18 17 18 19 19 19 21 22 23 22 21 21 21 19 16 16 17 16 16 14 9 12 13 16 22 28 30 33 34 33 34 34 34 33
6 4 3 3 2 3 2 2 1 2 1 2 2 3 5 5 6 8 9 8 7 6 7 8 8 9 11 12 11 13 14 13 14 14 12 10 10 9 9 10 11 12 13 14 14 15 15 15 16 16 17 17 16 17 18 18 18 17 18 20 21 19 18 19 20 21 19 17 17 15 13 11 8 12 15 17 23 28 30 33 35 33 33 35 35 34
6 5 3 3 1 2 3 2 2 2 1 1 1 0 1 1 2 1 4 4 3 4 7 8 9 9 11 12 13 14 12 10 11 12 11 10 9 9 9 9 10 12 12 13 13 14 14 14 14 15 15 15 16 16 17 17 17 15 15 17 19 18 18 18 20 23 22 20 19 16 12 9 6 10 15 18 23 28 31 32 34 33 31 33 35 34
5 4 4 3 1 2 4 3 2 2 2 2 2 1 2 3 3 2 3 2 2 4 9 11 9 10 11 11 13 11 4 3 4 6 8 8 7 8 9 9 10 12 12 13 13 13 14 14 14 14 14 14 15 15 15 16 15 14 14 15 16 17 18 18 19 20 22 22 22 19 15 9 3 6 13 16 19 26 29 30 31 32 32 33 35 33
7 4 5 5 2 2 4 3 2 2 2 2 2 2 5 5 2 2 2 2 0 4 11 12 11 12 13 13 12 7 1 1 1 2 4 5 7 8 10 11 12 13 13 14 14 14 14 14 13 13 14 15 15 15 14 15 14 14 15 16 16 16 17 18 18 18 18 20 21 21 20 15 10 4 5 13 18 23 26 27 27 30 31 32 32 30
6 4 4 4 3 3 3 2 1 1 1 1 1 2 5 4 1 1 1 1 2 6 11 13 12 13 14 13 11 4 2 0 3 3 2 5 7 8 9 11 11 12 14 14 15 14 14 13 13 14 16 16 16 15 14 13 13 14 16 17 17 17 17 18 18 16 14 13 16 19 22 21 20 18 12 7 12 20 25 26 25 24 23 24 26 27
4 3 3 3 4 3 3 3 1 1 0 1 2 4 4 1 2 1 1 3 6 9 11 12 11 11 12 12 9 4 4 5 9 8 6 7 8 8 9 10 10 11 12 13 13 13 13 13 14 16 16 16 15 15 14 14 14 15 17 17 18 19 19 18 17 16 13 10 10 13 16 18 20 22 22 18 12 13 19 23 24 22 20 21 25 28
2 2 2 2 2 2 3 3 1 0 0 1 2 3 2 1 2 2 4 9 13 13 10 10 10 10 10 11 11 12 13 13 13 11 9 8 9 9 9 10 10 11 12 11 11 11 11 12 13 14 14 14 15 15 15 16 16 17 18 19 20 19 18 17 17 17 15 12 10 10 12 13 14 16 18 19 16 14 13 14 16 19 21 23 26 26
1 2 2 2 2 3 3 3 2 2 1 2 2 1 2 0 4 9 13 14 15 15 13 13 13 13 14 17 18 18 17 15 13 12 10 9 8 8 9 9 10 11 11 12 12 12 12 13 13 13 13 14 14 15 16 17 18 18 19 20 20 18 17 17 17 17 17 16 13 12 11 11 11 12 14 14 12 11 12 12 11 12 14 16 18 19
1 1 2 1 1 2 3 2 2 1 1 0 3 3 4 8 15 18 18 16 14 15 16 16 16 16 19 21 21 19 17 15 13 11 10 8 8 8 8 9 9 10 11 12 13 13 14 15 15 15 15 14 14 14 15 16 17 18 19 19 17 15 17 18 18 18 19 19 17 15 14 12 10 9 10 11 10 8 9 9 7 6 6 7 9 11
1 4 5 3 2 3 4 3 3 5 8 10 13 14 16 18 19 19 19 18 16 16 18 20 20 20 20 20 20 18 16 15 13 11 10 10 10 11 11 10 10 10 11 11 12 13 14 15 16 17 17 17 16 16 15 15 15 16 17 17 14 13 13 15 17 20 22 23 22 19 16 14 13 11 9 8 7 7 7 7 6 5 4 3 4 5
3 6 6 5 5 6 8 8 7 10 14 18 20 20 20 21 19 17 18 20 18 18 19 21 21 20 19 19 19 19 17 16 14 13 12 13 13 13 14 13 13 13 13 13 13 13 14 15 16 17 18 18 18 18 18 17 16 16 15 13 13 13 12 11 13 17 20 23 25 23 20 17 15 14 13 11 9 8 9 8 7 7 7 6 6 6
1 4 5 4 4 4 5 5 6 11 16 20 22 21 21 20 19 18 20 21 21 21 20 20 20 20 19 19 20 21 19 17 16 14 12 12 12 12 12 13 13 13 14 13 13 13 14 15 15 17 18 18 17 17 17 17 18 18 15 12 11 11 12 12 14 15 17 19 22 23 22 20 18 16 14 13 12 11 11 11 10 10 12 12 11 11
3 7 7 4 3 4 6 8 11 15 18 20 22 22 22 22 21 20 22 23 23 22 21 20 20 21 21 20 20 20 18 16 14 13 11 10 10 10 10 10 9 10 10 10 11 11 12 13 14 15 15 16 16 16 15 16 17 17 17 15 13 10 9 10 13 15 16 17 19 21 21 20 19 18 16 14 12 12 12 12 11 12 13 12 10 10
6 5 4 5 7 6 7 11 14 15 14 15 19 22 22 23 23 22 22 23 24 24 23 22 21 21 21 20 19 18 17 15 13 13 12 11 10 9 9 8 7 7 7 8 9 9 10 11 13 14 13 14 15 15 14 16 18 17 16 16 17 15 12 11 11 12 13 15 17 19 19 19 18 18 17 15 13 13 13 14 12 11 11 11 11 10
6 5 5 8 7 3 4 8 10 9 8 11 18 22 22 22 24 24 24 24 25 25 24 22 21 19 18 17 16 16 16 14 13 12 11 11 11 11 10 10 9 9 9 9 9 9 8 10 12 13 13 13 14 14 14 15 18 19 16 14 14 15 15 15 15 15 15 13 13 14 16 17 18 17 17 17 16 15 15 15 15 13 12 11 11 10
6 7 6 5 5 7 11 13 13 13 13 15 21 23 22 22 24 25 25 25 24 23 22 21 19 17 15 14 12 12 12 12 11 11 11 11 10 10 10 11 11 11 10 10 10 9 8 8 9 10 11 12 13 14 13 13 15 16 16 15 14 14 15 16 17 18 18 17 14 12 11 12 14 15 15 15 16 15 15 15 15 16 15 14 12 10
Wind_Direction
175 162 158 184 196 197 196 183 173 161 136 141 97 79 279 296 289 281 281 278 232 202 253 222 215 248 270 289 290 207 220 225 226 222 201 196 200 206 204 204 208 206 208 216 221 223 219 215 211 209 207 201 197 200 209 215 221 225 220 220 223 225 225 215 216 226 225 221 216 218 223 225 230 230 227 229 231 232 234 230 222 216 216 218 219 217
153 174 212 208 199 187 193 188 153 120 104 99 75 335 308 278 270 275 268 290 261 171 259 230 188 249 285 297 327 14 323 242 231 224 210 198 201 208 207 206 206 199 203 215 222 224 218 211 206 204 201 194 197 204 210 216 220 223 221 223 224 224 219 204 207 228 227 225 219 217 223 224 227 230 228 230 231 233 234 229 222 218 217 218 219 220
136 207 232 214 190 168 179 141 121 122 123 117 119 105 303 261 281 291 273 297 343 165 255 160 157 253 334 333 352 15 359 329 285 245 264 224 208 211 210 204 196 189 201 215 223 222 213 205 200 200 196 197 207 213 216 217 219 222 222 223 223 227 227 206 196 214 215 217 217 215 221 223 225 231 231 232 234 235 234 230 227 223 221 221 221 220
160 241 232 195 151 152 212 131 110 103 117 153 168 132 251 253 271 291 282 311 342 112 198 131 137 309 358 12 17 9 358 6 20 41 34 19 29 355 252 225 208 197 200 211 216 215 207 201 198 195 193 203 214 219 219 216 217 221 220 223 224 230 236 217 205 212 208 206 207 207 215 221 225 231 232 235 235 232 231 231 230 227 223 224 228 225
214 243 195 141 138 165 209 197 125 128 235 254 204 153 186 244 215 223 273 321 343 7 64 96 57 336 4 25 15 360 357 10 25 37 29 21 31 12 270 248 215 205 205 207 206 207 204 199 197 196 196 208 219 220 218 220 226 226 221 225 227 229 237 224 212 214 210 202 198 201 210 217 222 228 231 232 231 227 226 228 227 225 222 225 231 228
239 239 146 123 148 174 194 223 168 154 185 291 233 177 190 229 227 228 298 5 28 10 16 86 70 293 332 23 11 354 360 6 19 29 22 16 24 28 162 188 198 200 202 204 203 202 199 196 199 202 203 210 219 219 218 227 239 238 231 231 229 228 236 227 215 214 212 201 194 197 207 214 218 222 226 228 226 226 225 223 221 221 222 226 228 224
232 191 152 143 162 172 189 231 214 159 141 278 236 181 181 190 155 178 38 54 77 327 341 86 115 229 319 13 0 347 357 7 17 25 20 19 24 32 78 159 178 185 194 198 198 197 196 201 203 197 197 208 217 215 211 220 233 235 235 238 236 233 231 220 213 213 211 201 193 194 204 212 215 219 223 225 226 230 231 223 218 219 220 223 223 218
185 162 162 162 157 167 194 227 213 158 130 231 238 150 153 159 148 168 114 88 182 224 330 10 100 111 336 339 336 337 355 22 22 17 15 21 25 32 46 92 153 172 190 196 198 202 206 209 202 185 190 199 205 207 204 205 216 226 230 237 239 238 230 216 211 209 205 201 198 200 205 209 213 218 221 222 224 232 234 225 218 218 217 217 217 214
171 162 179 175 161 177 203 204 185 152 140 241 232 133 152 165 151 154 106 93 17 82 324 319 56 89 321 302 324 348 14 23 18 13 13 17 22 31 37 48 104 153 181 197 204 208 210 207 196 198 206 202 201 208 207 198 188 207 219 220 227 234 229 215 209 205 201 202 206 210 211 210 213 218 221 222 224 228 229 224 219 218 216 213 213 211
207 188 187 163 158 203 215 197 161 157 186 240 199 112 85 75 96 99 96 104 39 62 233 273 31 100 286 310 336 2 15 5 0 9 17 16 19 28 35 40 52 83 128 160 180 187 191 195 197 205 210 208 212 213 209 201 183 187 200 200 210 223 223 215 210 207 205 209 214 216 218 218 218 220 222 225 227 226 224 222 219 219 216 213 213 211
288 235 187 160 188 212 210 185 163 177 189 171 142 110 62 39 49 48 64 93 70 34 253 259 75 98 124 310 340 8 22 359 345 359 20 19 18 24 35 41 46 54 73 107 141 160 175 190 200 206 207 212 219 214 206 208 199 188 190 197 206 214 218 218 214 212 213 219 224 224 226 228 227 225 226 228 228 225 224 222 219 218 216 213 214 212
331 314 207 208 215 209 177 162 176 191 177 101 121 123 105 4 25 30 0 52 96 246 263 256 84 82 105 248 311 352 33 25 3 359 15 23 19 23 36 43 47 56 65 80 94 110 139 177 203 208 211 221 227 215 201 206 209 201 195 198 205 212 217 218 216 218 222 227 233 235 234 233 233 232 231 232 231 228 226 223 218 216 214 212 212 210
326 234 269 273 225 195 146 141 171 157 101 105 115 100 110 330 36 35 306 60 160 226 240 224 96 72 83 241 293 342 30 36 24 20 22 30 25 25 37 43 47 54 56 59 62 60 60 50 333 253 250 252 245 224 205 204 212 214 208 206 210 213 216 216 216 219 225 231 236 239 239 237 236 237 236 233 233 231 228 223 216 212 212 213 210 205
319 288 304 332 246 196 155 146 155 151 141 151 148 122 129 116 92 220 265 132 215 225 217 233 117 96 162 198 290 339 56 59 48 45 41 41 35 32 40 45 48 50 48 49 49 47 43 31 10 320 276 260 247 225 207 208 224 229 221 217 218 219 221 221 220 223 228 235 239 240 243 240 238 241 240 233 229 229 226 222 217 212 212 214 211 207
166 293 257 196 233 190 168 172 169 155 147 170 160 128 141 148 137 195 204 163 195 199 278 306 53 131 185 109 326 306 67 83 66 55 51 48 42 41 45 46 47 47 48 52 55 52 46 33 23 6 305 266 246 226 214 220 239 243 231 223 222 224 228 229 229 232 235 239 241 242 246 246 242 241 241 235 228 224 222 221 219 213 214 215 210 209
147 234 251 240 236 171 173 188 150 124 116 235 137 101 136 177 142 132 179 172 170 140 5 353 76 118 159 103 342 302 336 88 72 58 53 50 46 44 43 41 44 48 53 59 63 64 61 54 46 39 23 2 283 238 233 236 244 249 243 232 228 231 236 238 237 238 241 244 244 242 244 249 248 243 241 237 230 223 220 221 219 214 214 213 208 208
126 253 278 285 264 207 178 179 155 141 159 178 117 143 199 170 123 114 194 201 105 109 16 326 125 104 102 105 325 286 142 83 64 54 49 50 50 48 43 40 41 47 53 57 61 64 64 63 59 50 30 15 9 334 282 261 260 266 259 246 239 241 247 250 248 243 241 248 253 248 243 246 248 244 241 237 230 224 220 217 215 213 211 208 204 205
141 261 288 246 234 255 182 145 84 88 135 120 170 185 157 78 90 108 140 13 49 107 261 327 103 131 154 179 269 181 126 96 76 59 46 44 49 50 45 42 44 48 53 54 55 56 55 54 51 44 31 8 353 341 329 311 298 296 289 274 258 250 254 260 259 250 240 247 259 248 234 236 242 237 231 229 225 220 215 211 208 208 207 205 204 203
123 22 292 262 216 267 63 94 53 354 62 119 165 160 111 111 147 98 123 120 93 128 168 9 25 172 171 214 232 154 129 113 98 75 52 41 44 45 39 38 43 47 48 49 50 50 49 49 46 43 34 15 355 339 332 324 313 305 303 306 290 260 254 262 263 251 238 240 251 236 221 230 240 230 222 221 219 213 207 204 203 204 206 205 204 204
118 102 287 283 261 240 29 65 161 281 2 76 91 49 62 135 158 160 139 144 143 148 145 80 358 280 207 231 250 152 140 124 107 89 66 50 44 43 37 33 36 38 40 43 46 46 45 46 45 43 35 19 360 344 335 326 314 305 305 314 309 265 254 256 257 250 242 244 246 235 228 237 240 226 218 216 215 209 203 202 203 204 205 204 203 204
105 105 234 293 325 79 129 234 186 186 175 105 97 78 312 87 113 146 109 100 127 138 144 127 198 269 236 241 275 153 140 117 109 105 78 59 47 43 40 36 33 33 36 41 43 41 38 36 34 34 34 29 7 341 334 327 315 308 313 318 309 274 258 245 241 256 263 258 250 242 238 243 240 222 215 215 213 206 201 201 203 204 206 205 205 205
150 137 177 285 352 54 257 283 214 167 142 127 126 154 174 132 121 123 121 332 86 119 155 148 173 250 265 52 48 102 109 88 86 96 86 69 53 45 41 40 38 35 35 37 40 41 37 33 28 23 24 26 22 13 359 351 341 329 330 324 300 296 281 245 229 246 256 255 253 248 242 243 235 217 211 215 213 206 201 200 202 205 208 207 206 205
144 111 121 263 332 209 273 320 55 115 102 93 81 52 86 125 121 124 175 222 72 89 129 109 117 234 72 83 79 77 77 68 62 70 82 70 53 43 38 38 39 39 38 34 35 37 37 34 31 23 18 15 13 12 5 359 357 351 346 330 301 300 301 281 260 247 244 250 254 252 246 241 228 213 210 212 211 207 203 202 203 205 206 206 205 204
114 97 101 245 318 317 298 332 26 59 78 78 46 25 39 96 134 139 169 169 120 125 117 81 85 233 144 102 90 75 69 67 59 55 66 62 45 37 33 30 31 35 39 37 32 32 31 30 27 23 17 13 12 10 8 5 1 356 354 347 323 305 298 288 275 263 257 255 255 253 247 242 232 219 216 212 208 208 207 205 205 202 201 204 204 204
149 114 99 111 43 350 320 333 6 12 40 67 28 348 347 21 104 126 123 80 108 175 146 119 140 197 138 108 91 79 72 68 57 52 59 55 40 32 28 25 25 29 35 37 35 30 26 23 21 21 21 19 18 15 13 12 10 7 3 359 350 332 309 289 274 265 260 256 254 252 247 244 239 230 224 216 209 209 209 206 202 199 199 202 203 205
114 100 108 128 152 178 194 208 223 337 24 46 20 355 1 25 81 124 122 87 125 186 111 119 148 133 121 108 92 83 79 72 55 51 55 52 44 35 26 24 23 26 30 34 35 33 29 25 23 23 23 22 21 18 16 14 12 11 8 4 360 350 336 311 282 264 256 253 251 249 247 245 242 240 235 225 215 212 210 204 199 197 199 203 204 203
100 68 75 111 134 179 187 196 197 127 80 37 357 359 8 10 33 96 121 142 162 145 48 173 153 135 132 125 107 92 84 79 55 46 46 42 39 32 27 27 25 25 29 32 34 33 32 29 26 24 23 22 22 20 17 14 10 8 5 3 0 355 349 335 312 286 266 256 252 250 249 246 244 242 238 229 219 213 208 202 198 197 200 206 206 202
104 56 25 72 75 80 103 77 63 76 80 65 35 13 20 35 54 76 96 157 147 126 72 222 152 136 136 130 117 110 99 89 65 50 44 38 33 27 26 29 28 26 27 30 32 32 32 32 28 26 23 20 19 18 16 13 11 11 7 3 1 357 353 343 328 320 303 283 270 262 255 250 246 241 236 229 220 212 205 201 198 196 201 206 204 202
111 60 12 76 68 44 46 64 78 87 83 67 59 42 33 47 64 72 64 1 122 137 166 161 139 122 117 113 108 108 104 99 88 72 61 52 40 27 27 31 27 21 20 23 25 27 31 32 30 28 24 20 18 16 15 14 12 11 9 6 5 2 357 354 345 338 329 310 293 285 272 257 246 241 237 228 219 211 205 202 200 198 203 206 202 200
99 61 27 88 76 43 23 29 76 92 88 64 52 47 44 55 65 68 64 56 64 90 128 127 113 94 88 96 92 93 97 101 95 78 63 55 44 32 33 33 25 17 16 17 18 21 27 31 31 28 23 20 19 15 14 13 10 7 4 3 5 3 359 355 350 346 342 329 307 298 292 275 256 246 240 226 216 212 206 203 202 201 204 207 202 197
75 124 219 73 72 32 13 37 70 85 87 68 43 31 35 49 56 54 56 63 67 78 98 104 102 93 85 90 89 86 86 85 79 69 59 50 44 41 38 33 24 18 17 16 17 20 23 27 29 27 22 22 19 15 14 11 5 0 358 358 1 1 357 351 345 343 344 340 328 311 297 290 278 262 248 229 216 212 208 204 200 198 203 208 205 196
78 116 120 65 82 9 341 78 80 76 79 66 36 15 17 34 55 52 40 39 75 120 118 110 109 118 118 107 92 77 72 70 64 63 61 49 46 49 44 36 28 22 20 18 17 19 21 22 23 22 21 21 18 15 13 9 2 358 356 355 356 355 353 350 347 343 341 340 337 327 308 296 288 273 259 238 218 210 208 202 198 197 200 206 205 195
110 125 134 105 99 140 237 195 42 45 65 54 8 349 353 26 74 69 42 24 26 115 127 122 126 127 126 122 103 78 70 68 62 60 59 49 46 49 48 43 35 30 29 23 19 20 21 20 21 20 20 20 18 16 12 6 3 1 359 357 355 352 351 351 350 346 339 335 336 334 325 309 289 276 274 250 223 212 205 200 198 198 198 202 205 195
105 123 136 131 109 150 221 315 19 47 95 22 322 331 356 83 82 75 58 36 35 65 98 101 105 113 118 118 113 100 83 75 71 67 61 55 50 46 47 46 40 37 36 30 26 24 21 20 20 20 21 23 22 17 12 8 7 4 2 359 356 353 353 354 354 351 342 332 332 334 330 320 288 265 272 256 226 211 203 198 197 196 196 201 202 194
102 103 109 89 99 134 152 21 55 180 203 88 46 66 92 98 91 84 71 50 54 74 93 99 102 108 110 109 109 107 100 90 80 69 60 58 54 48 45 43 38 35 32 29 29 27 24 23 21 20 23 25 24 19 14 12 9 6 4 0 354 354 358 360 1 4 359 345 338 334 328 322 284 238 244 247 228 209 200 197 194 193 197 199 196 190
120 111 98 72 76 118 93 46 136 173 131 93 86 84 95 96 89 79 61 42 46 70 97 106 107 111 113 114 118 116 109 96 78 63 53 52 51 47 46 44 42 40 36 33 31 28 29 29 26 26 25 23 25 23 19 17 11 7 9 4 357 359 6 8 11 16 16 6 356 349 336 325 288 231 221 223 217 205 197 195 192 194 199 194 188 188
116 119 103 70 56 121 109 86 101 115 142 199 226 175 86 41 280 68 69 48 33 74 111 119 119 124 127 130 134 127 111 88 68 50 37 39 46 46 48 49 50 50 47 45 42 39 40 38 35 36 31 25 27 27 24 22 14 10 15 11 2 4 11 17 20 23 25 24 19 12 359 336 291 229 210 206 205 199 196 196 192 193 196 190 185 189
80 111 130 114 78 108 108 110 121 143 202 191 170 232 349 349 272 237 106 91 21 101 132 136 132 140 144 146 150 144 106 50 50 27 18 32 50 56 58 60 61 61 59 58 56 54 53 49 46 45 38 32 34 32 29 26 15 8 19 21 12 6 7 18 27 26 26 31 32 28 20 6 327 219 202 196 194 194 195 195 190 187 190 187 185 187
56 63 95 96 100 122 118 125 145 178 200 152 159 275 349 2 280 238 97 119 178 146 153 148 143 156 162 162 168 172 30 6 123 4 5 49 71 71 70 69 69 68 67 65 63 61 61 59 56 51 43 40 41 39 35 30 18 13 25 32 28 17 10 19 30 28 26 33 40 43 42 39 36 39 189 187 181 178 182 187 185 183 184 183 182 184
40 31 55 91 122 124 104 107 113 141 179 115 162 303 344 357 248 202 126 190 162 150 163 161 157 169 173 171 175 180 352 232 158 136 103 95 87 82 79 74 72 72 71 69 67 65 64 61 56 50 45 44 45 44 40 35 27 27 34 35 34 33 27 26 30 30 30 37 45 53 57 58 58 58 67 121 160 161 163 170 173 171 175 178 179 181
40 31 61 108 115 93 88 107 101 37 296 272 301 314 339 15 180 202 221 164 121 120 147 160 160 171 180 181 176 137 78 115 136 131 121 104 93 89 86 82 82 81 77 75 73 69 65 60 56 53 51 48 46 44 44 42 38 39 42 38 36 39 37 33 31 32 35 39 45 56 64 65 65 68 70 71 81 116 139 152 159 162 174 187 185 179
60 36 48 84 113 110 97 96 96 77 289 297 307 323 7 139 202 197 130 130 122 115 124 139 142 151 161 157 144 124 114 120 127 125 118 107 99 93 89 89 90 87 84 81 77 72 69 66 63 61 59 55 51 47 46 47 48 49 49 46 44 42 37 34 35 36 39 43 45 53 66 72 73 76 80 77 70 73 93 119 137 147 158 171 174 170
109 97 81 76 117 119 92 82 123 162 268 289 262 298 350 50 154 131 116 118 124 121 119 118 122 133 139 130 125 126 127 126 126 124 117 109 98 89 89 94 93 87 82 78 74 71 71 70 66 62 58 55 54 52 50 50 53 56 58 57 56 52 47 45 44 43 44 48 50 50 57 71 84 89 92 91 85 77 81 91 104 117 128 139 150 157
328 133 157 213 234 124 127 154 163 115 12 240 164 128 96 122 138 133 120 114 117 123 124 121 120 129 134 128 125 129 131 128 126 123 113 101 88 82 86 94 92 85 79 76 74 73 71 71 69 65 62 58 55 54 52 50 53 58 62 62 61 61 61 60 58 55 51 50 52 54 52 56 71 89 98 102 106 109 107 107 108 107 104 107 124 139
50 100 105 91 62 82 96 116 119 89 84 102 114 114 115 125 136 138 128 121 121 125 127 126 126 129 130 126 126 129 128 125 122 117 108 99 93 90 90 91 87 81 77 76 76 72 68 68 68 64 62 63 63 61 57 51 50 54 58 58 57 60 65 66 65 63 59 54 52 52 51 51 56 64 75 91 109 125 127 132 145 144 136 130 119 112
120 108 96 92 105 92 70 70 88 89 90 99 107 113 120 127 133 134 127 124 127 130 128 127 130 133 131 128 126 125 124 122 119 114 107 101 97 94 92 89 85 81 80 78 76 72 69 67 64 58 56 58 62 62 59 54 49 48 48 50 53 57 62 68 68 66 63 59 55 52 51 52 54 58 64 71 83 100 110 117 130 131 123 118 111 103
32 91 91 103 138 124 78 77 91 92 97 104 107 111 118 123 127 127 124 124 128 130 129 129 130 131 129 127 124 123 123 121 117 113 108 102 97 94 90 88 85 81 77 71 68 68 68 65 62 58 56 56 57 56 54 51 49 47 45 44 46 50 58 65 69 69 67 63 59 55 53 52 52 56 62 69 74 84 93 97 102 104 99 93 92 95
97 98 96 89 88 90 101 114 107 99 104 111 114 117 120 121 123 123 123 126 129 128 128 129 128 127 125 123 121 120 120 119 117 116 114 108 103 98 92 90 85 77 69 63 60 60 61 60 59 56 55 54 52 51 49 48 47 46 47 47 43 35 41 53 60 66 71 70 65 61 57 55 54 54 57 64 72 80 86 89 96 103 101 95 92 91
117 105 105 108 103 89 99 118 113 100 97 106 114 121 124 124 124 124 125 128 129 127 127 126 124 123 121 120 120 119 118 119 119 118 117 113 109 104 100 98 94 84 75 68 63 58 55 54 50 46 46 46 46 50 53 50 43 40 42 46 44 39 38 41 42 49 61 70 72 67 60 58 58 57 57 62 69 75 81 84 88 94 101 105 104 99
100 112 122 120 121 123 135 142 132 111 103 114 120 124 127 127 126 125 127 129 127 126 127 125 123 123 121 120 122 122 121 123 122 120 119 115 110 106 103 101 99 95 89 82 77 72 67 60 52 46 45 43 43 48 52 47 39 33 32 37 39 38 40 42 39 37 40 50 63 68 63 59 58 57 57 59 62 66 72 78 81 83 87 96 102 105
123 157 164 136 126 141 150 151 139 122 121 128 129 129 130 129 127 126 128 128 125 124 125 124 124 127 125 123 124 120 119 122 122 122 122 117 114 114 113 109 104 99 93 88 85 81 74 66 55 46 43 41 42 46 49 46 38 31 28 33 38 37 37 39 39 36 32 31 35 42 50 55 57 55 54 55 56 57 61 68 76 79 78 78 80 86